Volver al catálogo

SL-16 DEB

ActivoLEO
NORAD 26074·DEBRIS·🇷🇺 Russia

Lanzado Feb 3, 2000 desde Baikonur Cosmodrome

Loading…

Próximos Pases (próximas 24 horas)

TLE

ActualizadoSource: Space-Track

Época: Sep 13, 2026, 23:25 UTC

1 26074U 00006D   26256.97631312  .00000047  00000-0  86050-4 0  9992
2 26074  70.9619  85.7555 0211647 128.8409 233.1793 13.70146786371003

Sigue SL-16 DEB en tiempo real con AllMySat

Download on the App Store